sat.trackr.live / text

‹ back to catalog

STARLINK-33660

NORAD 63278 · 2025-053P

PAYLOAD ACTIVE UNKNOWN

§ Identity

Operator
Country
US
Launch date
2025-03-15
Launch site
AFETR
Launch vehicle
Mass (kg)
RCS (m²)

Purposes: comms

External: N2YO · Heavens-Above · Gunter

§ Orbital elements

Epoch: 2026-05-24T13:24:21.913344Z

Period
94.27 min
Inclination
43.0000°
Eccentricity
0.0001301
Mean motion
15.27582129 rev/d
Perigee alt
482.2 km
Apogee alt
483.9 km
Semi-major
6,861.2 km
B*
2.2541e-4
RAAN
173.5662°
Arg perigee
277.4093°
Mean anomaly
82.6611°
Rev number
6,779

§ Raw data

STARLINK-336601 63278U 25053P   26144.55858696  .00005946  00000+0  22541-3 0  99902 63278  43.0000 173.5662 0001301 277.4093  82.6611 15.27582129 67797

JSON: /api/v1/satellites/63278 · /tle

For live sub-satellite position, see the globe view (requires WebGL).

§ Visibility from observer

Set your observer location to see the next 7 days of passes ≥ 10°. The values pass through the URL so the page stays shareable.

No JS? Fill the form by hand. The geolocation button needs JavaScript.